Home > Weather > Pirna > Past weeks

Flag for Germany Weather for the Past 2 Weeks in Pirna, Saxony, Germany

Now
52 °F

Sunny.


Feels Like: 49 °F
Forecast: 36 / 48 °F
Wind: 8 mph from Southeast

Location: Dresden-Klotzsche

Current Time: Feb 6, 2016 at 3:09:23 PM

Latest Report: Feb 6, 2016 at 2:20 PM


Visibility: 10 mi

Pressure: 29.98 "Hg

Humidity: 58%

Dew point: 37 °F

Location of PirnaLocation

Historic Weather in Pirna — Graph

°F

Pirna Temperature Yesterday

Maximum temperature yesterday: 45 °F (at 11:50 PM)
Minimum temperature yesterday: 34 °F (at 2:20 AM)
Average temperature yesterday: 38 °F

High & Low Weather Summary for the Past Weeks

 TemperatureHumidityPressure
High55 °F (Jan 27, 1:50 PM)100% (Jan 23, 8:20 AM)30.51 "Hg (Jan 23, 8:20 AM)
Low19 °F (Jan 22, 5:50 PM)46% (Jan 29, 11:50 AM)29.65 "Hg (Jan 30, 8:50 PM)
Average42 °F78%30.10 "Hg
* Reported Jan 22 1:20 PM — Feb 6 1:50 PM, Pirna, Weather by CustomWeather, © 2016

Note: Actual official high and low records may vary slightly from our data, if they occured in-between our weather recording intervals... More about our weather records

Advertising

Pirna Weather History for the Previous 24 Hours

 ConditionsComfort  
Time TempWeatherWind HumidityBarometerVisibility
1:50 PM
Sat, Feb 6
52 °FSunny.8 mph58%29.98 "Hg10 mi
1:20 PM50 °FSunny.13 mph62%29.98 "Hg10 mi
12:50 PM50 °FSunny.14 mph62%29.98 "Hg10 mi
12:20 PM48 °FSunny.15 mph66%30.01 "Hg10 mi
11:50 AM48 °FSunny.17 mph66%30.01 "Hg10 mi
11:20 AM48 °FSunny.18 mph66%30.04 "Hg10 mi
10:50 AM48 °FSunny.17 mph66%30.04 "Hg10 mi
10:20 AM46 °FSunny.12 mph76%30.07 "Hg10 mi
9:50 AM45 °FSunny.10 mph76%30.07 "Hg10 mi
9:20 AM43 °FSunny.7 mph87%30.07 "Hg10 mi
8:50 AM41 °FSunny.5 mph87%30.07 "Hg10 mi
8:20 AM41 °FSunny.10 mph87%30.07 "Hg10 mi
7:50 AM39 °FSunny.9 mph87%30.07 "Hg10 mi
7:20 AM39 °FClear.10 mph93%30.09 "Hg10 mi
6:50 AM37 °FClear.10 mph93%30.09 "Hg10 mi
6:20 AM37 °FClear.8 mph93%30.09 "Hg10 mi
5:50 AM37 °FClear.9 mph93%30.12 "Hg10 mi
5:20 AM37 °FClear.9 mph100%30.12 "Hg10 mi
4:50 AM39 °FClear.8 mph93%30.12 "Hg10 mi
4:20 AM39 °FClear.7 mph93%30.15 "Hg10 mi
3:50 AM41 °FClear.8 mph93%30.15 "Hg10 mi
3:20 AM41 °FPassing clouds.7 mph93%30.15 "HgN/A
2:50 AM43 °FClear.7 mph87%30.15 "Hg10 mi
2:20 AM43 °FClear.10 mph87%30.15 "Hg10 mi
1:20 AM45 °FPassing clouds.9 mph87%30.15 "HgN/A
12:50 AM45 °FPassing clouds.9 mph87%30.15 "HgN/A
12:20 AM45 °FPassing clouds.8 mph87%30.15 "HgN/A
11:50 PM
Fri, Feb 5
45 °FPassing clouds.9 mph81%30.15 "HgN/A
11:20 PM43 °FPartly cloudy.7 mph87%30.18 "HgN/A
10:50 PM43 °FLight rain. Partly cloudy.10 mph87%30.18 "HgN/A
10:20 PM43 °FLight rain. Passing clouds.10 mph87%30.18 "HgN/A
9:50 PM43 °FMostly cloudy.8 mph87%30.18 "HgN/A
9:20 PM43 °FLight rain. Overcast.9 mph87%30.18 "HgN/A
8:50 PM43 °FDrizzle. Overcast.10 mph87%30.18 "HgN/A
8:20 PM41 °FDrizzle. Mostly cloudy.10 mph93%30.18 "HgN/A
7:50 PM41 °FDrizzle. Mostly cloudy.8 mph93%30.18 "HgN/A
7:20 PM41 °FDrizzle. Mostly cloudy.9 mph93%30.18 "HgN/A
6:50 PM39 °FLight rain. Mostly cloudy.9 mph93%30.18 "HgN/A
6:20 PM39 °FLight rain. Overcast.10 mph93%30.18 "HgN/A
5:50 PM39 °FLight rain. Overcast.9 mph87%30.21 "HgN/A
5:20 PM39 °FDrizzle. Overcast.9 mph87%30.21 "HgN/A
4:50 PM39 °FDrizzle. Overcast.7 mph87%30.21 "HgN/A
4:20 PM39 °FLight rain. More clouds than sun.9 mph81%30.21 "HgN/A
3:50 PM41 °FLight rain. Broken clouds.8 mph76%30.21 "HgN/A
3:20 PM41 °FLight rain. Broken clouds.9 mph70%30.21 "HgN/A
Weather by CustomWeather, © 2016

See weather overviewHow to use our weather pages